Voltar ao catálogo

STARLINK-1202

AtivoComunicaçõesVLEO
NORAD 45183·PAYLOAD·🇺🇸 United States

Lançado Feb 17, 2020 de Cape Canaveral Space Force Station

Loading…

Próximas Passagens (próximas 24 horas)

TLE

AtualizadoSource: CelesTrak SupGP

Época: Sep 15, 2026, 01:33 UTC

1 45183C 20012F   26258.06506944  .00002729  00000+0  61151-4 0  2588
2 45183  53.1517 232.6136 0002328  87.2371 349.1900 15.42847860    13

Acompanhe STARLINK-1202 em tempo real com AllMySat

Download on the App Store